Voltar ao catálogo

CUBESX-HSE-3

AtivoCiênciaSSO
NORAD 57178·PAYLOAD·🇷🇺 Russia
Este nome de satélite ainda não foi confirmado por fontes oficiais.

Lançado Jun 27, 2023 de Vostochny Cosmodrome

Loading…

Próximas Passagens (próximas 24 horas)

TLE

AtualizadoSource: Space-Track

Época: Sep 14, 2026, 21:42 UTC

1 57178U 23091N   26257.90483465  .00012804  00000-0  40080-3 0  9994
2 57178  97.4999 324.7134 0011357 129.2964 230.9287 15.33188470178165

Acompanhe CUBESX-HSE-3 em tempo real com AllMySat

Download on the App Store